This is the latest recevied weather packets stored in our database for station/object WX6HNX-2. If no packets are shown the sender has not sent any weather packets the latest 10 day(s).
| Time | Temp. | Humidity | Pressure | Rain* | Wind** | Luminosity | Snow |
|---|---|---|---|---|---|---|---|
| 1778023343 | 13.33° C | 77% | 1015.1 hPa | 0 mm | - | - | - |
| 1778023103 | 13.33° C | 75% | 1015 hPa | 0 mm | - | - | - |
| 1778022863 | 13.33° C | 75% | 1015 hPa | 0 mm | - | - | - |
| 1778022623 | 13.33° C | 75% | 1015 hPa | 0 mm | - | - | - |
| 1778022383 | 13.33° C | 75% | 1015 hPa | 0 mm | - | - | - |
| 1778022143 | 13.33° C | 75% | 1015 hPa | 0 mm | - | - | - |
| 1778021903 | 13.33° C | 75% | 1015 hPa | 0 mm | - | - | - |
| 1778021663 | 13.33° C | 74% | 1015 hPa | 0 mm | - | - | - |
| 1778021356 | 13.33° C | 73% | 1015 hPa | 0 mm | - | - | - |
| 1778021116 | 13.33° C | 73% | 1015 hPa | 0 mm | - | - | - |
| 1778020876 | 13.33° C | 75% | 1015 hPa | 0 mm | - | - | - |
| 1778020636 | 13.33° C | 75% | 1015 hPa | 0 mm | - | - | - |
| 1778020396 | 13.33° C | 75% | 1015 hPa | 0 mm | - | - | - |
| 1778020156 | 13.33° C | 75% | 1015.1 hPa | 0 mm | - | - | - |
| 1778019808 | 13.33° C | 73% | 1015.1 hPa | 0 mm | - | - | - |
| 1778019568 | 13.33° C | 74% | 1015.2 hPa | 0 mm | - | - | - |
| 1778019328 | 13.33° C | 76% | 1015.1 hPa | 0 mm | - | - | - |
| 1778018880 | 13.33° C | 75% | 1015.1 hPa | 0 mm | - | - | - |
| 1778018400 | 13.33° C | 75% | 1015.2 hPa | 0 mm | - | - | - |
| 1778018160 | 13.33° C | 75% | 1015.2 hPa | 0 mm | - | - | - |
| 1778017680 | 13.33° C | 77% | 1015 hPa | 0 mm | - | - | - |
| 1778016873 | 13.33° C | 77% | 1015.1 hPa | 0 mm | - | - | - |
| 1778016153 | 13.33° C | 80% | 1015.1 hPa | 0 mm | - | - | - |
| 1778015673 | 12.78° C | 79% | 1015.3 hPa | 0 mm | - | - | - |
| 1778015433 | 12.78° C | 78% | 1015.2 hPa | 0 mm | - | - | - |
* Rain latest hour (hover to see other rain measurements)
** Current wind speed in m/s (hover to see current wind gust speed)